GFSFLT2_925_thetae_282.txt.gz
Theta_e
300 301 307 324 326 326 325 325 324 325 325 326 328 327 327 328 326 323 322 320 319 318 317 316 316 315 315
298 303 305 322 324 325 325 324 325 325 326 325 327 327 326 327 326 324 322 322 320 319 318 318 317 316 315
293 297 301 306 322 323 324 324 324 325 326 326 326 327 326 326 326 325 323 322 321 320 319 318 318 317 316
294 295 299 303 309 320 321 322 322 323 324 325 326 327 326 326 325 324 324 323 321 321 320 319 319 318 318
293 294 297 301 304 318 320 319 319 320 320 322 323 326 322 321 324 320 321 324 322 321 322 321 320 320 319
292 294 295 297 300 302 316 318 317 318 319 318 320 320 322 321 323 320 320 321 323 321 322 321 321 320 320
292 293 295 296 298 299 302 313 319 318 318 318 317 318 319 322 321 320 320 321 323 323 321 321 321 321 320
289 291 292 294 295 297 300 301 303 316 318 318 316 317 317 318 319 320 319 320 322 323 322 322 321 320 318
289 290 291 292 294 293 296 301 304 313 317 318 316 317 317 316 317 318 319 319 320 323 322 321 320 319 318
289 289 291 292 293 293 295 298 303 303 315 317 314 314 309 314 315 317 317 319 320 322 321 319 319 318 317
290 290 291 292 293 294 296 296 300 302 306 315 313 312 314 304 311 313 315 316 319 321 319 319 318 317 316
292 291 291 291 293 294 296 298 299 301 303 306 313 313 311 298 301 308 312 313 315 317 319 318 317 316 315
290 291 291 291 292 293 294 297 300 302 305 306 309 312 312 308 298 302 306 309 313 314 315 316 314 314 312
291 290 290 290 291 293 294 295 298 301 303 304 306 311 310 313 312 300 307 304 307 310 312 310 311 313 312
290 290 289 289 290 291 293 295 296 300 302 306 307 308 311 311 304 304 301 303 302 304 305 301 304 308 307
288 290 290 290 290 290 291 293 296 298 302 303 304 302 301 301 303 302 301 301 298 300 300 297 295 299 302
285 287 288 289 290 290 291 292 295 296 302 299 300 303 302 305 298 301 302 299 295 295 299 299 296 297 298

GFSFLT2_925_thetae_285.txt.gz
Theta_e
293 294 297 301 304 312 325 325 325 323 323 325 328 328 329 328 326 325 324 322 321 319 318 316 315 315 315
292 295 295 297 299 304 319 325 324 324 323 324 326 327 328 328 327 325 325 323 321 320 318 317 316 316 315
292 293 294 295 299 301 306 324 324 324 323 324 325 326 327 328 327 326 325 324 322 320 319 318 317 316 316
291 293 294 295 296 301 305 312 324 324 323 324 325 325 326 326 327 327 326 325 323 321 320 319 318 317 316
291 292 293 294 297 298 300 303 322 323 323 322 323 324 325 326 327 327 327 326 324 323 320 319 319 318 317
289 291 292 293 292 296 298 300 309 322 322 322 322 322 323 324 324 326 326 325 325 323 322 321 320 319 319
289 290 291 292 292 292 295 297 301 303 311 321 321 322 322 323 324 326 326 324 324 323 322 322 321 321 320
288 289 290 291 291 292 292 294 296 299 303 318 318 320 321 322 323 325 325 324 323 322 322 322 322 321 321
287 287 288 289 290 291 291 292 296 300 302 317 317 319 319 320 320 323 320 320 322 320 320 322 323 321 322
287 288 288 289 290 291 292 293 293 297 304 308 315 316 310 317 318 318 320 321 322 321 320 320 322 322 321
288 289 289 289 290 291 293 293 293 295 299 300 305 307 314 307 315 316 317 316 319 320 319 320 321 322 319
289 290 290 291 290 291 293 294 294 295 296 299 302 303 302 299 305 313 315 316 316 316 318 320 321 322 322
290 290 291 292 292 291 291 292 293 295 297 298 299 300 302 305 300 307 310 313 314 315 315 317 319 319 318
290 290 290 290 289 289 290 291 292 293 294 296 300 303 304 306 306 304 310 308 311 313 314 315 316 318 318
289 289 289 289 289 289 289 290 292 293 294 295 296 299 302 303 305 306 305 308 310 310 310 309 311 314 315
285 287 288 290 289 289 289 289 290 291 293 294 297 299 301 302 305 305 304 305 307 307 307 305 303 307 310
284 284 285 287 288 289 289 289 290 290 292 294 296 300 300 303 302 303 303 303 302 300 304 304 303 300 305

GFSFLT2_925_thetae_288.txt.gz
Theta_e
290 292 292 293 295 295 298 302 310 326 325 325 325 327 329 330 327 327 326 325 323 322 320 319 317 316 316
290 291 292 293 293 294 298 299 304 317 322 324 325 325 326 329 328 326 326 326 324 322 321 319 318 316 315
289 290 291 292 294 294 296 298 303 312 324 324 325 325 325 326 327 326 326 326 325 323 321 319 318 317 315
288 289 291 292 293 294 297 298 300 304 318 324 324 325 325 325 327 322 322 323 325 323 322 320 318 317 316
287 289 291 292 294 294 293 296 298 303 313 322 323 323 324 325 325 326 323 324 325 324 322 321 319 318 317
288 290 290 291 292 293 293 294 299 301 299 303 322 323 322 322 324 325 325 326 326 325 323 322 320 319 317
288 289 290 290 291 293 293 292 293 295 296 300 304 321 323 323 322 324 324 325 326 325 324 323 321 319 318
287 288 289 290 291 291 291 291 291 293 296 301 303 306 323 323 323 323 324 324 324 325 325 324 323 321 319
286 286 287 287 288 289 289 291 292 294 296 299 300 301 321 322 322 323 324 324 325 325 324 325 323 322 320
286 287 287 288 288 289 290 292 292 292 296 300 304 301 305 321 321 322 323 324 324 324 326 325 324 322 321
287 288 289 289 289 289 290 291 292 292 294 295 295 298 302 301 317 319 319 318 320 323 325 325 324 323 319
289 289 290 290 291 291 291 291 293 293 293 292 292 295 297 299 299 313 317 318 317 316 317 322 324 323 322
290 289 290 290 290 292 291 291 292 292 294 294 293 293 295 298 300 304 314 316 316 317 316 317 318 317 317
290 290 291 291 291 291 291 291 291 291 291 292 292 292 296 298 299 300 306 311 314 315 315 315 315 315 316
290 291 291 290 290 290 290 290 290 290 291 291 292 293 292 295 299 301 303 306 311 314 314 313 313 314 315
286 287 288 289 289 289 290 289 290 290 290 290 291 293 294 293 296 299 301 303 307 311 313 312 310 312 313
284 285 286 286 287 288 288 290 290 290 290 290 291 293 294 296 298 300 301 303 305 307 308 311 309 307 310

GFSFLT2_925_thetae_291.txt.gz
Theta_e
287 288 289 290 290 292 293 294 296 298 303 314 324 327 330 330 329 330 329 328 326 325 323 321 320 319 319
286 286 287 289 291 291 292 294 295 297 302 303 307 323 325 326 329 330 329 328 326 326 324 321 320 319 318
286 286 287 289 290 291 292 293 294 299 299 302 308 320 325 326 325 327 329 328 327 326 324 322 320 319 318
286 286 287 288 291 292 293 294 294 296 298 302 308 318 325 325 326 326 327 328 327 327 324 323 321 320 319
285 286 287 289 292 293 292 294 293 296 299 300 299 316 324 326 326 326 327 327 327 326 325 323 322 321 319
285 286 287 288 290 292 293 293 294 296 295 295 296 301 313 322 324 325 326 327 327 326 324 324 323 322 320
284 285 286 288 290 291 291 292 292 292 292 293 296 299 304 315 323 324 324 326 326 326 325 325 324 322 320
286 286 286 287 288 290 291 291 291 291 291 293 296 300 301 304 316 323 324 324 325 324 321 320 323 323 321
284 285 285 286 287 288 288 289 290 291 292 293 295 296 301 305 314 322 323 324 325 325 322 322 324 324 322
284 285 286 286 287 287 288 290 290 292 292 292 298 297 296 303 306 318 322 323 324 324 324 323 323 322 319
285 286 286 287 287 288 288 289 290 291 292 292 292 293 297 297 298 302 313 319 320 322 324 323 322 323 319
287 287 288 288 289 290 290 290 290 290 292 292 292 292 292 293 295 298 301 306 317 318 318 320 324 324 322
288 288 289 290 290 291 291 291 291 291 291 293 293 292 292 291 292 294 298 303 307 318 317 317 317 318 318
289 289 290 290 290 291 291 292 291 291 291 290 290 291 291 291 291 293 296 298 302 313 316 316 316 316 316
290 290 290 290 290 291 291 291 290 290 290 290 289 290 291 291 291 292 294 297 299 301 314 315 315 315 316
285 286 287 288 288 289 290 290 290 289 289 290 290 290 290 291 292 292 293 296 298 300 305 313 313 314 316
283 284 285 285 286 287 288 289 290 290 289 289 290 290 291 292 293 293 293 296 298 300 302 309 312 312 315

GFSFLT2_925_thetae_297.txt.gz
Theta_e
281 281 282 282 282 282 283 285 285 286 290 292 295 296 298 301 303 311 316 328 328 328 328 327 325 323 324
281 281 281 281 281 283 284 283 285 286 289 293 294 295 299 299 301 303 309 327 328 329 329 328 326 324 324
281 281 281 282 282 283 283 285 285 287 291 294 295 296 298 298 300 302 307 318 328 330 329 328 327 325 325
281 281 281 281 282 282 284 285 285 290 291 292 294 295 296 298 298 302 310 314 319 327 327 328 327 326 325
281 281 281 281 282 282 283 284 285 287 290 292 294 295 295 297 299 301 302 310 316 327 328 328 326 326 325
281 281 281 281 282 283 284 285 288 288 290 290 291 291 293 295 296 298 302 303 303 322 327 327 327 326 326
281 282 281 281 281 282 283 283 284 284 286 289 289 290 291 293 296 298 302 302 303 315 324 327 328 327 325
284 284 283 283 283 282 283 283 284 285 287 289 288 289 289 290 294 297 300 302 303 309 318 326 326 325 325
284 284 283 283 283 283 284 285 285 285 286 287 287 288 290 292 293 299 301 303 302 309 316 325 327 325 325
283 284 285 285 285 286 286 286 286 286 286 286 287 289 292 294 297 298 301 302 302 306 314 320 326 323 323
284 283 283 283 283 283 284 284 286 286 286 286 288 289 290 291 292 293 296 298 298 301 310 315 323 324 321
286 285 284 284 284 284 284 285 285 285 285 286 288 289 290 291 292 293 293 295 296 299 301 309 316 322 322
286 285 285 285 285 285 285 286 286 286 287 287 288 289 290 291 291 291 291 292 294 297 298 298 302 314 318
283 284 285 285 285 286 286 287 288 289 289 289 289 289 290 290 289 289 290 290 291 292 293 295 298 301 316
281 282 283 284 286 286 287 287 287 288 288 288 290 290 290 290 289 289 289 289 290 290 292 292 296 297 305
280 281 282 283 283 285 288 288 288 288 287 288 290 289 288 288 288 289 289 289 290 290 291 291 293 297 300
280 280 281 281 282 283 283 284 287 287 287 288 288 288 288 289 289 289 289 289 289 290 291 291 293 295 298